Year,Month,Day,Hour,Minute,Value (Times are PST for temperature in C)
2020,10,03,00,00,13.60
2020,10,03,00,01,13.60
2020,10,03,00,02,13.60
2020,10,03,00,03,13.60
2020,10,03,00,04,13.60
2020,10,03,00,05,13.60
2020,10,03,00,06,13.60
2020,10,03,00,07,13.60
2020,10,03,00,08,13.60
2020,10,03,00,09,13.60
2020,10,03,00,10,13.60
2020,10,03,00,11,13.60
2020,10,03,00,12,13.60
2020,10,03,00,13,13.60
2020,10,03,00,14,13.50
2020,10,03,00,15,13.60
2020,10,03,00,16,13.50
2020,10,03,00,17,13.50
2020,10,03,00,18,13.50
2020,10,03,00,19,13.50
2020,10,03,00,20,13.60
2020,10,03,00,21,13.60
2020,10,03,00,22,13.60
2020,10,03,00,23,13.60
2020,10,03,00,24,13.60
2020,10,03,00,25,13.60
2020,10,03,00,26,13.60
2020,10,03,00,27,13.60
2020,10,03,00,28,13.60
2020,10,03,00,29,13.70
2020,10,03,00,30,13.70
2020,10,03,00,31,13.70
2020,10,03,00,32,13.70
2020,10,03,00,33,13.70
2020,10,03,00,34,13.80
2020,10,03,00,35,13.80
2020,10,03,00,36,13.80
2020,10,03,00,37,13.80
2020,10,03,00,38,13.80
2020,10,03,00,39,13.80
2020,10,03,00,40,13.80
2020,10,03,00,41,13.80
2020,10,03,00,42,13.70
2020,10,03,00,43,13.70
2020,10,03,00,44,13.70
2020,10,03,00,45,13.60
2020,10,03,00,46,13.60
2020,10,03,00,47,13.60
2020,10,03,00,48,13.60
2020,10,03,00,49,13.60
2020,10,03,00,50,13.50
2020,10,03,00,51,13.50
2020,10,03,00,52,13.50
2020,10,03,00,53,13.50
2020,10,03,00,54,13.50
2020,10,03,00,55,13.50
2020,10,03,00,56,13.50
2020,10,03,00,57,13.50
2020,10,03,00,58,13.40
2020,10,03,00,59,13.40
2020,10,03,01,00,13.40
2020,10,03,01,01,13.40
2020,10,03,01,02,13.40
2020,10,03,01,03,13.40
2020,10,03,01,04,13.40
2020,10,03,01,05,13.50
2020,10,03,01,06,13.40
2020,10,03,01,07,13.40
2020,10,03,01,08,13.40
2020,10,03,01,09,13.40
2020,10,03,01,10,13.40
2020,10,03,01,11,13.40
2020,10,03,01,12,13.40
2020,10,03,01,13,13.40
2020,10,03,01,14,13.40
2020,10,03,01,15,13.40
2020,10,03,01,16,13.40
2020,10,03,01,17,13.40
2020,10,03,01,18,13.40
2020,10,03,01,19,13.40
2020,10,03,01,20,13.40
2020,10,03,01,21,13.40
2020,10,03,01,22,13.40
2020,10,03,01,23,13.40
2020,10,03,01,24,13.40
2020,10,03,01,25,13.40
2020,10,03,01,26,13.40
2020,10,03,01,27,13.40
2020,10,03,01,28,13.40
2020,10,03,01,29,13.40
2020,10,03,01,30,13.40
2020,10,03,01,31,13.40
2020,10,03,01,32,13.40
2020,10,03,01,33,13.40
2020,10,03,01,34,13.40
2020,10,03,01,35,13.30
2020,10,03,01,36,13.40
2020,10,03,01,37,13.40
2020,10,03,01,38,13.40
2020,10,03,01,39,13.30
2020,10,03,01,40,13.30
2020,10,03,01,41,13.30
2020,10,03,01,42,13.30
2020,10,03,01,43,13.40
2020,10,03,01,44,13.40
2020,10,03,01,45,13.40
2020,10,03,01,46,13.40
2020,10,03,01,47,13.30
2020,10,03,01,48,13.30
2020,10,03,01,49,13.30
2020,10,03,01,50,13.30
2020,10,03,01,51,13.30
2020,10,03,01,52,13.30
2020,10,03,01,53,13.30
2020,10,03,01,54,13.30
2020,10,03,01,55,13.30
2020,10,03,01,56,13.30
2020,10,03,01,57,13.20
2020,10,03,01,58,13.20
2020,10,03,01,59,13.20
2020,10,03,02,00,13.20
2020,10,03,02,01,13.20
2020,10,03,02,02,13.20
2020,10,03,02,03,13.20
2020,10,03,02,04,13.20
2020,10,03,02,05,13.20
2020,10,03,02,06,13.20
2020,10,03,02,07,13.20
2020,10,03,02,08,13.20
2020,10,03,02,09,13.10
2020,10,03,02,10,13.20
2020,10,03,02,11,13.10
2020,10,03,02,12,13.10
2020,10,03,02,13,13.10
2020,10,03,02,14,13.10
2020,10,03,02,15,13.10
2020,10,03,02,16,13.10
2020,10,03,02,17,13.10
2020,10,03,02,18,13.00
2020,10,03,02,19,13.00
2020,10,03,02,20,13.00
2020,10,03,02,21,13.00
2020,10,03,02,22,13.00
2020,10,03,02,23,13.00
2020,10,03,02,24,13.00
2020,10,03,02,25,13.00
2020,10,03,02,26,13.00
2020,10,03,02,27,13.10
2020,10,03,02,28,13.00
2020,10,03,02,29,13.10
2020,10,03,02,30,13.00
2020,10,03,02,31,13.00
2020,10,03,02,32,13.00
2020,10,03,02,33,13.00
2020,10,03,02,34,13.00
2020,10,03,02,35,13.00
2020,10,03,02,36,13.00
2020,10,03,02,37,13.00
2020,10,03,02,38,13.00
2020,10,03,02,39,13.00
2020,10,03,02,40,12.90
2020,10,03,02,41,12.90
2020,10,03,02,42,12.90
2020,10,03,02,43,12.90
2020,10,03,02,44,12.90
2020,10,03,02,45,12.90
2020,10,03,02,46,12.80
2020,10,03,02,47,12.80
2020,10,03,02,48,12.80
2020,10,03,02,49,12.80
2020,10,03,02,50,12.80
2020,10,03,02,51,12.80
2020,10,03,02,52,12.90
2020,10,03,02,53,12.90
2020,10,03,02,54,12.90
2020,10,03,02,55,12.90
2020,10,03,02,56,12.90
2020,10,03,02,57,12.90
2020,10,03,02,58,12.90
2020,10,03,02,59,12.90
2020,10,03,03,00,12.90
2020,10,03,03,01,12.80
2020,10,03,03,02,12.80
2020,10,03,03,03,12.80
2020,10,03,03,04,12.80
2020,10,03,03,05,12.80
2020,10,03,03,06,12.80
2020,10,03,03,07,12.80
2020,10,03,03,08,12.80
2020,10,03,03,09,12.70
2020,10,03,03,10,12.70
2020,10,03,03,11,12.70
2020,10,03,03,12,12.70
2020,10,03,03,13,12.70
2020,10,03,03,14,12.70
2020,10,03,03,15,12.60
2020,10,03,03,16,12.60
2020,10,03,03,17,12.60
2020,10,03,03,18,12.60
2020,10,03,03,19,12.60
2020,10,03,03,20,12.60
2020,10,03,03,21,12.60
2020,10,03,03,22,12.60
2020,10,03,03,23,12.60
2020,10,03,03,24,12.60
2020,10,03,03,25,12.50
2020,10,03,03,26,12.50
2020,10,03,03,27,12.50
2020,10,03,03,28,12.50
2020,10,03,03,29,12.60
2020,10,03,03,30,12.50
2020,10,03,03,31,12.50
2020,10,03,03,32,12.50
2020,10,03,03,33,12.50
2020,10,03,03,34,12.40
2020,10,03,03,35,12.40
2020,10,03,03,36,12.40
2020,10,03,03,37,12.40
2020,10,03,03,38,12.40
2020,10,03,03,39,12.40
2020,10,03,03,40,12.40
2020,10,03,03,41,12.40
2020,10,03,03,42,12.30
2020,10,03,03,43,12.30
2020,10,03,03,44,12.30
2020,10,03,03,45,12.30
2020,10,03,03,46,12.30
2020,10,03,03,47,12.30
2020,10,03,03,48,12.30
2020,10,03,03,49,12.30
2020,10,03,03,50,12.30
2020,10,03,03,51,12.30
2020,10,03,03,52,12.30
2020,10,03,03,53,12.30
2020,10,03,03,54,12.20
2020,10,03,03,55,12.20
2020,10,03,03,56,12.30
2020,10,03,03,57,12.20
2020,10,03,03,58,12.30
2020,10,03,03,59,12.20
2020,10,03,04,00,12.20
2020,10,03,04,01,12.20
2020,10,03,04,02,12.20
2020,10,03,04,03,12.30
2020,10,03,04,04,12.20
2020,10,03,04,05,12.20
2020,10,03,04,06,12.20
2020,10,03,04,07,12.20
2020,10,03,04,08,12.20
2020,10,03,04,09,12.30
2020,10,03,04,10,12.30
2020,10,03,04,11,12.20
2020,10,03,04,12,12.20
2020,10,03,04,13,12.20
2020,10,03,04,14,12.20
2020,10,03,04,15,12.20
2020,10,03,04,16,12.20
2020,10,03,04,17,12.20
2020,10,03,04,18,12.20
2020,10,03,04,19,12.10
2020,10,03,04,20,12.10
2020,10,03,04,21,12.10
2020,10,03,04,22,12.10
2020,10,03,04,23,12.10
2020,10,03,04,24,12.10
2020,10,03,04,25,12.00
2020,10,03,04,26,12.00
2020,10,03,04,27,12.00
2020,10,03,04,28,12.00
2020,10,03,04,29,12.00
2020,10,03,04,30,12.00
2020,10,03,04,31,12.00
2020,10,03,04,32,12.00
2020,10,03,04,33,12.10
2020,10,03,04,34,12.00
2020,10,03,04,35,12.00
2020,10,03,04,36,12.00
2020,10,03,04,37,12.00
2020,10,03,04,38,12.00
2020,10,03,04,39,12.00
2020,10,03,04,40,12.10
2020,10,03,04,41,12.00
2020,10,03,04,42,12.10
2020,10,03,04,43,12.00
2020,10,03,04,44,12.00
2020,10,03,04,45,12.00
2020,10,03,04,46,12.00
2020,10,03,04,47,12.00
2020,10,03,04,48,12.00
2020,10,03,04,49,12.00
2020,10,03,04,50,12.00
2020,10,03,04,51,12.00
2020,10,03,04,52,12.00
2020,10,03,04,53,11.90
2020,10,03,04,54,11.90
2020,10,03,04,55,11.90
2020,10,03,04,56,11.90
2020,10,03,04,57,11.90
2020,10,03,04,58,11.90
2020,10,03,04,59,11.90
2020,10,03,05,00,11.90
2020,10,03,05,01,11.90
2020,10,03,05,02,11.80
2020,10,03,05,03,11.80
2020,10,03,05,04,11.80
2020,10,03,05,05,11.80
2020,10,03,05,06,11.80
2020,10,03,05,07,11.80
2020,10,03,05,08,11.80
2020,10,03,05,09,11.70
2020,10,03,05,10,11.70
2020,10,03,05,11,11.70
2020,10,03,05,12,11.80
2020,10,03,05,13,11.80
2020,10,03,05,14,11.80
2020,10,03,05,15,11.80
2020,10,03,05,16,11.80
2020,10,03,05,17,11.80
2020,10,03,05,18,11.80
2020,10,03,05,19,11.80
2020,10,03,05,20,11.80
2020,10,03,05,21,11.80
2020,10,03,05,22,11.80
2020,10,03,05,23,11.80
2020,10,03,05,24,11.70
2020,10,03,05,25,11.70
2020,10,03,05,26,11.70
2020,10,03,05,27,11.70
2020,10,03,05,28,11.70
2020,10,03,05,29,11.70
2020,10,03,05,30,11.60
2020,10,03,05,31,11.60
2020,10,03,05,32,11.60
2020,10,03,05,33,11.60
2020,10,03,05,34,11.60
2020,10,03,05,35,11.60
2020,10,03,05,36,11.60
2020,10,03,05,37,11.60
2020,10,03,05,38,11.70
2020,10,03,05,39,11.70
2020,10,03,05,40,11.70
2020,10,03,05,41,11.70
2020,10,03,05,42,11.70
2020,10,03,05,43,11.70
2020,10,03,05,44,11.70
2020,10,03,05,45,11.60
2020,10,03,05,46,11.60
2020,10,03,05,47,11.70
2020,10,03,05,48,11.60
2020,10,03,05,49,11.60
2020,10,03,05,50,11.60
2020,10,03,05,51,11.70
2020,10,03,05,52,11.60
2020,10,03,05,53,11.60
2020,10,03,05,54,11.60
2020,10,03,05,55,11.60
2020,10,03,05,56,11.60
2020,10,03,05,57,11.50
2020,10,03,05,58,11.50
2020,10,03,05,59,11.50
2020,10,03,06,00,11.50
2020,10,03,06,01,11.40
2020,10,03,06,02,11.40
2020,10,03,06,03,11.30
2020,10,03,06,04,11.40
2020,10,03,06,05,11.40
2020,10,03,06,06,11.40
2020,10,03,06,07,11.40
2020,10,03,06,08,11.40
2020,10,03,06,09,11.50
2020,10,03,06,10,11.50
2020,10,03,06,11,11.50
2020,10,03,06,12,11.40
2020,10,03,06,13,11.40
2020,10,03,06,14,11.40
2020,10,03,06,15,11.40
2020,10,03,06,16,11.40
2020,10,03,06,17,11.40
2020,10,03,06,18,11.40
2020,10,03,06,19,11.40
2020,10,03,06,20,11.40
2020,10,03,06,21,11.40
2020,10,03,06,22,11.40
2020,10,03,06,23,11.30
2020,10,03,06,24,11.30
2020,10,03,06,25,11.30
2020,10,03,06,26,11.30
2020,10,03,06,27,11.40
2020,10,03,06,28,11.40
2020,10,03,06,29,11.40
2020,10,03,06,30,11.40
2020,10,03,06,31,11.40
2020,10,03,06,32,11.40
2020,10,03,06,33,11.40
2020,10,03,06,34,11.40
2020,10,03,06,35,11.40
2020,10,03,06,36,11.30
2020,10,03,06,37,11.40
2020,10,03,06,38,11.30
2020,10,03,06,39,11.30
2020,10,03,06,40,11.30
2020,10,03,06,41,11.30
2020,10,03,06,42,11.30
2020,10,03,06,43,11.30
2020,10,03,06,44,11.20
2020,10,03,06,45,11.20
2020,10,03,06,46,11.20
2020,10,03,06,47,11.20
2020,10,03,06,48,11.30
2020,10,03,06,49,11.20
2020,10,03,06,50,11.20
2020,10,03,06,51,11.20
2020,10,03,06,52,11.20
2020,10,03,06,53,11.20
2020,10,03,06,54,11.20
2020,10,03,06,55,11.20
2020,10,03,06,56,11.10
2020,10,03,06,57,11.10
2020,10,03,06,58,11.20
2020,10,03,06,59,11.20
2020,10,03,07,00,11.20
2020,10,03,07,01,11.20
2020,10,03,07,02,11.20
2020,10,03,07,03,11.20
2020,10,03,07,04,11.20
2020,10,03,07,05,11.20
2020,10,03,07,06,11.20
2020,10,03,07,07,11.20
2020,10,03,07,08,11.20
2020,10,03,07,09,11.20
2020,10,03,07,10,11.10
2020,10,03,07,11,11.10
2020,10,03,07,12,11.10
2020,10,03,07,13,11.10
2020,10,03,07,14,11.10
2020,10,03,07,15,11.10
2020,10,03,07,16,11.10
2020,10,03,07,17,11.10
2020,10,03,07,18,11.10
2020,10,03,07,19,11.20
2020,10,03,07,20,11.20
2020,10,03,07,21,11.20
2020,10,03,07,22,11.20
2020,10,03,07,23,11.20
2020,10,03,07,24,11.20
2020,10,03,07,25,11.20
2020,10,03,07,26,11.20
2020,10,03,07,27,11.20
2020,10,03,07,28,11.20
2020,10,03,07,29,11.20
2020,10,03,07,30,11.20
2020,10,03,07,31,11.20
2020,10,03,07,32,11.20
2020,10,03,07,33,11.20
2020,10,03,07,34,11.20
2020,10,03,07,35,11.20
2020,10,03,07,36,11.10
2020,10,03,07,37,11.10
2020,10,03,07,38,11.10
2020,10,03,07,39,11.10
2020,10,03,07,40,11.10
2020,10,03,07,41,11.10
2020,10,03,07,42,11.10
2020,10,03,07,43,11.10
2020,10,03,07,44,11.10
2020,10,03,07,45,11.10
2020,10,03,07,46,11.10
2020,10,03,07,47,11.10
2020,10,03,07,48,11.20
2020,10,03,07,49,11.10
2020,10,03,07,50,11.10
2020,10,03,07,51,11.10
2020,10,03,07,52,11.10
2020,10,03,07,53,11.20
2020,10,03,07,54,11.20
2020,10,03,07,55,11.20
2020,10,03,07,56,11.20
2020,10,03,07,57,11.20
2020,10,03,07,58,11.20
2020,10,03,07,59,11.20
2020,10,03,08,00,11.20
2020,10,03,08,01,11.10
2020,10,03,08,02,11.10
2020,10,03,08,03,11.10
2020,10,03,08,04,11.10
2020,10,03,08,05,11.10
2020,10,03,08,06,11.10
2020,10,03,08,07,11.10
2020,10,03,08,08,11.10
2020,10,03,08,09,11.10
2020,10,03,08,10,11.20
2020,10,03,08,11,11.20
2020,10,03,08,12,11.20
2020,10,03,08,13,11.20
2020,10,03,08,14,11.20
2020,10,03,08,15,11.20
2020,10,03,08,16,11.30
2020,10,03,08,17,11.30
2020,10,03,08,18,11.30
2020,10,03,08,19,11.40
2020,10,03,08,20,11.40
2020,10,03,08,21,11.40
2020,10,03,08,22,11.40
2020,10,03,08,23,11.50
2020,10,03,08,24,11.50
2020,10,03,08,25,11.50
2020,10,03,08,26,11.60
2020,10,03,08,27,11.60
2020,10,03,08,28,11.60
2020,10,03,08,29,11.60
2020,10,03,08,30,11.60
2020,10,03,08,31,11.60
2020,10,03,08,32,11.50
2020,10,03,08,33,11.50
2020,10,03,08,34,11.50
2020,10,03,08,35,11.60
2020,10,03,08,36,11.60
2020,10,03,08,37,11.60
2020,10,03,08,38,11.60
2020,10,03,08,39,11.60
2020,10,03,08,40,11.70
2020,10,03,08,41,11.70
2020,10,03,08,42,11.70
2020,10,03,08,43,11.70
2020,10,03,08,44,11.70
2020,10,03,08,45,11.80
2020,10,03,08,46,11.80
2020,10,03,08,47,11.80
2020,10,03,08,48,11.80
2020,10,03,08,49,11.90
2020,10,03,08,50,11.90
2020,10,03,08,51,11.90
2020,10,03,08,52,11.90
2020,10,03,08,53,12.00
2020,10,03,08,54,12.00
2020,10,03,08,55,12.10
2020,10,03,08,56,12.10
2020,10,03,08,57,12.20
2020,10,03,08,58,12.20
2020,10,03,08,59,12.20
2020,10,03,09,00,12.30
2020,10,03,09,01,12.30
2020,10,03,09,02,12.30
2020,10,03,09,03,12.40
2020,10,03,09,04,12.40
2020,10,03,09,05,12.40
2020,10,03,09,06,12.40
2020,10,03,09,07,12.40
2020,10,03,09,08,12.40
2020,10,03,09,09,12.40
2020,10,03,09,10,12.50
2020,10,03,09,11,12.60
2020,10,03,09,12,12.60
2020,10,03,09,13,12.70
2020,10,03,09,14,12.70
2020,10,03,09,15,12.80
2020,10,03,09,16,12.80
2020,10,03,09,17,12.80
2020,10,03,09,18,12.80
2020,10,03,09,19,12.90
2020,10,03,09,20,12.90
2020,10,03,09,21,12.90
2020,10,03,09,22,13.00
2020,10,03,09,23,13.00
2020,10,03,09,24,13.00
2020,10,03,09,25,13.00
2020,10,03,09,26,13.10
2020,10,03,09,27,13.10
2020,10,03,09,28,13.10
2020,10,03,09,29,13.10
2020,10,03,09,30,13.10
2020,10,03,09,31,13.10
2020,10,03,09,32,13.20
2020,10,03,09,33,13.20
2020,10,03,09,34,13.20
2020,10,03,09,35,13.30
2020,10,03,09,36,13.30
2020,10,03,09,37,13.40
2020,10,03,09,38,13.40
2020,10,03,09,39,13.50
2020,10,03,09,40,13.50
2020,10,03,09,41,13.60
2020,10,03,09,42,13.60
2020,10,03,09,43,13.70
2020,10,03,09,44,13.80
2020,10,03,09,45,13.80
2020,10,03,09,46,13.80
2020,10,03,09,47,13.90
2020,10,03,09,48,13.90
2020,10,03,09,49,14.00
2020,10,03,09,50,14.10
2020,10,03,09,51,14.10
2020,10,03,09,52,14.20
2020,10,03,09,53,14.20
2020,10,03,09,54,14.30
2020,10,03,09,55,14.30
2020,10,03,09,56,14.30
2020,10,03,09,57,14.50
2020,10,03,09,58,14.50
2020,10,03,09,59,14.50
2020,10,03,10,00,14.60
2020,10,03,10,01,14.60
2020,10,03,10,02,14.60
2020,10,03,10,03,14.60
2020,10,03,10,04,14.70
2020,10,03,10,05,14.70
2020,10,03,10,06,14.80
2020,10,03,10,07,14.90
2020,10,03,10,08,14.90
2020,10,03,10,09,15.10
2020,10,03,10,10,15.20
2020,10,03,10,11,15.20
2020,10,03,10,12,15.30
2020,10,03,10,13,15.40
2020,10,03,10,14,15.40
2020,10,03,10,15,15.50
2020,10,03,10,16,15.60
2020,10,03,10,17,15.70
2020,10,03,10,18,15.70
2020,10,03,10,19,15.80
2020,10,03,10,20,15.80
2020,10,03,10,21,15.80
2020,10,03,10,22,15.90
2020,10,03,10,23,15.90
2020,10,03,10,24,16.00
2020,10,03,10,25,16.10
2020,10,03,10,26,16.10
2020,10,03,10,27,16.20
2020,10,03,10,28,16.20
2020,10,03,10,29,16.20
2020,10,03,10,30,16.30
2020,10,03,10,31,16.30
2020,10,03,10,32,16.30
2020,10,03,10,33,16.30
2020,10,03,10,34,16.40
2020,10,03,10,35,16.40
2020,10,03,10,36,16.50
2020,10,03,10,37,16.50
2020,10,03,10,38,16.60
2020,10,03,10,39,16.70
2020,10,03,10,40,16.90
2020,10,03,10,41,16.90
2020,10,03,10,42,17.00
2020,10,03,10,43,17.20
2020,10,03,10,44,17.20
2020,10,03,10,45,17.40
2020,10,03,10,46,17.50
2020,10,03,10,47,17.60
2020,10,03,10,48,17.60
2020,10,03,10,49,17.70
2020,10,03,10,50,17.70
2020,10,03,10,51,17.70
2020,10,03,10,52,17.80
2020,10,03,10,53,17.80
2020,10,03,10,54,17.80
2020,10,03,10,55,17.80
2020,10,03,10,56,17.80
2020,10,03,10,57,17.80
2020,10,03,10,58,17.90
2020,10,03,10,59,17.90
2020,10,03,11,00,17.90
2020,10,03,11,01,17.90
2020,10,03,11,02,18.00
2020,10,03,11,03,18.10
2020,10,03,11,04,18.10
2020,10,03,11,05,18.20
2020,10,03,11,06,18.30
2020,10,03,11,07,18.40
2020,10,03,11,08,18.50
2020,10,03,11,09,18.50
2020,10,03,11,10,18.60
2020,10,03,11,11,18.70
2020,10,03,11,12,18.70
2020,10,03,11,13,18.70
2020,10,03,11,14,18.70
2020,10,03,11,15,18.70
2020,10,03,11,16,18.70
2020,10,03,11,17,18.80
2020,10,03,11,18,18.80
2020,10,03,11,19,18.80
2020,10,03,11,20,18.80
2020,10,03,11,21,18.90
2020,10,03,11,22,19.00
2020,10,03,11,23,19.00
2020,10,03,11,24,19.10
2020,10,03,11,25,19.20
2020,10,03,11,26,19.20
2020,10,03,11,27,19.20
2020,10,03,11,28,19.20
2020,10,03,11,29,19.30
2020,10,03,11,30,19.30
2020,10,03,11,31,19.30
2020,10,03,11,32,19.30
2020,10,03,11,33,19.40
2020,10,03,11,34,19.50
2020,10,03,11,35,19.50
2020,10,03,11,36,19.50
2020,10,03,11,37,19.50
2020,10,03,11,38,19.50
2020,10,03,11,39,19.60
2020,10,03,11,40,19.60
2020,10,03,11,41,19.60
2020,10,03,11,42,19.60
2020,10,03,11,43,19.70
2020,10,03,11,44,19.60
2020,10,03,11,45,19.60
2020,10,03,11,46,19.60
2020,10,03,11,47,19.70
2020,10,03,11,48,19.70
2020,10,03,11,49,19.70
2020,10,03,11,50,19.70
2020,10,03,11,51,19.70
2020,10,03,11,52,19.70
2020,10,03,11,53,19.70
2020,10,03,11,54,19.70
2020,10,03,11,55,19.80
2020,10,03,11,56,19.80
2020,10,03,11,57,19.80
2020,10,03,11,58,19.90
2020,10,03,11,59,19.90
2020,10,03,12,00,19.90
2020,10,03,12,01,20.00
2020,10,03,12,02,20.10
2020,10,03,12,03,20.10
2020,10,03,12,04,20.20
2020,10,03,12,05,20.20
2020,10,03,12,06,20.10
2020,10,03,12,07,20.10
2020,10,03,12,08,20.00
2020,10,03,12,09,19.90
2020,10,03,12,10,19.80
2020,10,03,12,11,19.70
2020,10,03,12,12,19.70
2020,10,03,12,13,19.70
2020,10,03,12,14,19.60
2020,10,03,12,15,19.60
2020,10,03,12,16,19.60
2020,10,03,12,17,19.60
2020,10,03,12,18,19.70
2020,10,03,12,19,19.70
2020,10,03,12,20,19.70
2020,10,03,12,21,19.70
2020,10,03,12,22,19.60
2020,10,03,12,23,19.60
2020,10,03,12,24,19.60
2020,10,03,12,25,19.70
2020,10,03,12,26,19.80
2020,10,03,12,27,19.80
2020,10,03,12,28,19.90
2020,10,03,12,29,20.00
2020,10,03,12,30,20.00
2020,10,03,12,31,19.90
2020,10,03,12,32,19.90
2020,10,03,12,33,19.90
2020,10,03,12,34,19.90
2020,10,03,12,35,20.00
2020,10,03,12,36,20.10
2020,10,03,12,37,20.20
2020,10,03,12,38,20.30
2020,10,03,12,39,20.30
2020,10,03,12,40,20.20
2020,10,03,12,41,20.20
2020,10,03,12,42,20.20
2020,10,03,12,43,20.20
2020,10,03,12,44,20.20
2020,10,03,12,45,20.10
2020,10,03,12,46,20.10
2020,10,03,12,47,20.10
2020,10,03,12,48,20.10
2020,10,03,12,49,20.10
2020,10,03,12,50,20.10
2020,10,03,12,51,20.10
2020,10,03,12,52,20.20
2020,10,03,12,53,20.20
2020,10,03,12,54,20.30
2020,10,03,12,55,20.40
2020,10,03,12,56,20.50
2020,10,03,12,57,20.60
2020,10,03,12,58,20.60
2020,10,03,12,59,20.70
2020,10,03,13,00,20.70
2020,10,03,13,01,20.70
2020,10,03,13,02,20.70
2020,10,03,13,03,20.70
2020,10,03,13,04,20.70
2020,10,03,13,05,20.70
2020,10,03,13,06,20.50
2020,10,03,13,07,20.30
2020,10,03,13,08,20.20
2020,10,03,13,09,20.00
2020,10,03,13,10,19.90
2020,10,03,13,11,19.80
2020,10,03,13,12,19.70
2020,10,03,13,13,19.60
2020,10,03,13,14,19.50
2020,10,03,13,15,19.30
2020,10,03,13,16,19.20
2020,10,03,13,17,19.30
2020,10,03,13,18,19.30
2020,10,03,13,19,19.40
2020,10,03,13,20,19.40
2020,10,03,13,21,19.40
2020,10,03,13,22,19.30
2020,10,03,13,23,19.30
2020,10,03,13,24,19.20
2020,10,03,13,25,19.20
2020,10,03,13,26,19.30
2020,10,03,13,27,19.50
2020,10,03,13,28,19.50
2020,10,03,13,29,19.60
2020,10,03,13,30,19.70
2020,10,03,13,31,19.70
2020,10,03,13,32,19.70
2020,10,03,13,33,19.80
2020,10,03,13,34,19.80
2020,10,03,13,35,19.90
2020,10,03,13,36,19.80
2020,10,03,13,37,19.80
2020,10,03,13,38,19.70
2020,10,03,13,39,19.60
2020,10,03,13,40,19.50
2020,10,03,13,41,19.50
2020,10,03,13,42,19.40
2020,10,03,13,43,19.50
2020,10,03,13,44,19.50
2020,10,03,13,45,19.50
2020,10,03,13,46,19.50
2020,10,03,13,47,19.50
2020,10,03,13,48,19.60
2020,10,03,13,49,19.70
2020,10,03,13,50,19.70
2020,10,03,13,51,19.80
2020,10,03,13,52,19.80
2020,10,03,13,53,19.90
2020,10,03,13,54,19.90
2020,10,03,13,55,20.00
2020,10,03,13,56,20.10
2020,10,03,13,57,20.10
2020,10,03,13,58,20.10
2020,10,03,13,59,20.00
2020,10,03,14,00,19.90
2020,10,03,14,01,19.80
2020,10,03,14,02,19.80
2020,10,03,14,03,19.80
2020,10,03,14,04,19.80
2020,10,03,14,05,19.80
2020,10,03,14,06,19.90
2020,10,03,14,07,19.90
2020,10,03,14,08,19.90
2020,10,03,14,09,19.90
2020,10,03,14,10,20.00
2020,10,03,14,11,20.00
2020,10,03,14,12,20.00
2020,10,03,14,13,19.90
2020,10,03,14,14,19.90
2020,10,03,14,15,19.80
2020,10,03,14,16,19.80
2020,10,03,14,17,19.80
2020,10,03,14,18,19.80
2020,10,03,14,19,19.80
2020,10,03,14,20,19.80
2020,10,03,14,21,19.90
2020,10,03,14,22,19.90
2020,10,03,14,23,20.00
2020,10,03,14,24,20.00
2020,10,03,14,25,20.10
2020,10,03,14,26,20.20
2020,10,03,14,27,20.20
2020,10,03,14,28,20.20
2020,10,03,14,29,20.20
2020,10,03,14,30,20.20
2020,10,03,14,31,20.20
2020,10,03,14,32,20.20
2020,10,03,14,33,20.10
2020,10,03,14,34,20.00
2020,10,03,14,35,19.80
2020,10,03,14,36,19.80
2020,10,03,14,37,19.70
2020,10,03,14,38,19.70
2020,10,03,14,39,19.80
2020,10,03,14,40,19.80
2020,10,03,14,41,19.90
2020,10,03,14,42,20.00
2020,10,03,14,43,20.00
2020,10,03,14,44,20.10
2020,10,03,14,45,20.20
2020,10,03,14,46,20.30
2020,10,03,14,47,20.30
2020,10,03,14,48,20.30
2020,10,03,14,49,20.40
2020,10,03,14,50,20.40
2020,10,03,14,51,20.50
2020,10,03,14,52,20.50
2020,10,03,14,53,20.40
2020,10,03,14,54,20.40
2020,10,03,14,55,20.40
2020,10,03,14,56,20.40
2020,10,03,14,57,20.40
2020,10,03,14,58,20.40
2020,10,03,14,59,20.40
2020,10,03,15,00,20.30
2020,10,03,15,01,20.30
2020,10,03,15,02,20.20
2020,10,03,15,03,20.10
2020,10,03,15,04,20.00
2020,10,03,15,05,19.90
2020,10,03,15,06,19.80
2020,10,03,15,07,19.80
2020,10,03,15,08,19.80
2020,10,03,15,09,19.80
2020,10,03,15,10,19.80
2020,10,03,15,11,19.80
2020,10,03,15,12,19.80
2020,10,03,15,13,19.70
2020,10,03,15,14,19.60
2020,10,03,15,15,19.50
2020,10,03,15,16,19.40
2020,10,03,15,17,19.40
2020,10,03,15,18,19.40
2020,10,03,15,19,19.40
2020,10,03,15,20,19.40
2020,10,03,15,21,19.40
2020,10,03,15,22,19.40
2020,10,03,15,23,19.40
2020,10,03,15,24,19.30
2020,10,03,15,25,19.20
2020,10,03,15,26,19.10
2020,10,03,15,27,19.00
2020,10,03,15,28,18.90
2020,10,03,15,29,18.90
2020,10,03,15,30,18.90
2020,10,03,15,31,19.00
2020,10,03,15,32,19.00
2020,10,03,15,33,19.00
2020,10,03,15,34,19.00
2020,10,03,15,35,18.90
2020,10,03,15,36,18.90
2020,10,03,15,37,18.80
2020,10,03,15,38,18.80
2020,10,03,15,39,18.90
2020,10,03,15,40,18.80
2020,10,03,15,41,18.80
2020,10,03,15,42,18.90
2020,10,03,15,43,18.90
2020,10,03,15,44,19.00
2020,10,03,15,45,19.10
2020,10,03,15,46,19.20
2020,10,03,15,47,19.20
2020,10,03,15,48,19.20
2020,10,03,15,49,19.20
2020,10,03,15,50,19.10
2020,10,03,15,51,19.10
2020,10,03,15,52,19.10
2020,10,03,15,53,19.10
2020,10,03,15,54,19.10
2020,10,03,15,55,19.10
2020,10,03,15,56,19.20
2020,10,03,15,57,19.20
2020,10,03,15,58,19.30
2020,10,03,15,59,19.30
2020,10,03,16,00,19.40
2020,10,03,16,01,19.40
2020,10,03,16,02,19.30
2020,10,03,16,03,19.30
2020,10,03,16,04,19.10
2020,10,03,16,05,19.00
2020,10,03,16,06,18.90
2020,10,03,16,07,18.90
2020,10,03,16,08,18.90
2020,10,03,16,09,18.90
2020,10,03,16,10,19.00
2020,10,03,16,11,19.00
2020,10,03,16,12,19.00
2020,10,03,16,13,19.10
2020,10,03,16,14,19.10
2020,10,03,16,15,19.10
2020,10,03,16,16,19.10
2020,10,03,16,17,19.20
2020,10,03,16,18,19.20
2020,10,03,16,19,19.20
2020,10,03,16,20,19.20
2020,10,03,16,21,19.20
2020,10,03,16,22,19.20
2020,10,03,16,23,19.10
2020,10,03,16,24,19.10
2020,10,03,16,25,19.00
2020,10,03,16,26,19.00
2020,10,03,16,27,18.90
2020,10,03,16,28,18.80
2020,10,03,16,29,18.80
2020,10,03,16,30,18.70
2020,10,03,16,31,18.80
2020,10,03,16,32,18.80
2020,10,03,16,33,18.80
2020,10,03,16,34,18.80
2020,10,03,16,35,18.80
2020,10,03,16,36,18.80
2020,10,03,16,37,18.80
2020,10,03,16,38,18.70
2020,10,03,16,39,18.70
2020,10,03,16,40,18.70
2020,10,03,16,41,18.60
2020,10,03,16,42,18.50
2020,10,03,16,43,18.40
2020,10,03,16,44,18.30
2020,10,03,16,45,18.30
2020,10,03,16,46,18.30
2020,10,03,16,47,18.30
2020,10,03,16,48,18.30
2020,10,03,16,49,18.30
2020,10,03,16,50,18.30
2020,10,03,16,51,18.30
2020,10,03,16,52,18.30
2020,10,03,16,53,18.30
2020,10,03,16,54,18.40
2020,10,03,16,55,18.40
2020,10,03,16,56,18.40
2020,10,03,16,57,18.40
2020,10,03,16,58,18.40
2020,10,03,16,59,18.40
2020,10,03,17,00,18.40
2020,10,03,17,01,18.30
2020,10,03,17,02,18.30
2020,10,03,17,03,18.30
2020,10,03,17,04,18.20
2020,10,03,17,05,18.20
2020,10,03,17,06,18.20
2020,10,03,17,07,18.10
2020,10,03,17,08,18.20
2020,10,03,17,09,18.20
2020,10,03,17,10,18.20
2020,10,03,17,11,18.20
2020,10,03,17,12,18.20
2020,10,03,17,13,18.20
2020,10,03,17,14,18.10
2020,10,03,17,15,18.10
2020,10,03,17,16,18.10
2020,10,03,17,17,18.10
2020,10,03,17,18,18.10
2020,10,03,17,19,18.20